Luxembourg, Luxembourg

9:43 AM CEST on June 19, 2018 (GMT +0200)
Luxembourg

Weather History for ELLX - May, 2017

Change the Weather History Date:

Sunday, May 28, 2017

  Actual Average Record
Temperature  
Mean Temperature 76 °F -  
Max Temperature 87 °F 68 °F 87 °F (2017)
Min Temperature 64 °F 50 °F 41 °F (1997)
Cooling Degree Days 10    
Growing Degree Days 26 (Base 50)    
Moisture  
Dew Point 59 °F    
Average Humidity 52    
Maximum Humidity 73    
Minimum Humidity 27    
Precipitation  
Precipitation 0.00 in 0.11 in - ()
Sea Level Pressure  
Sea Level Pressure 30.06 in    
Wind  
Wind Speed 4 mph ()    
Max Wind Speed 12 mph    
Max Gust Speed 22 mph    
Visibility 10.9 miles    
Events Thunderstorm    
Averages and records for this station are not official NWS values.
T = Trace of Precipitation, MM = Missing Value Source: Averaged Metar Reports

Daily Weather History Graph

Daily Weather History Graph

Search for Another Location

Airport or City:

Astronomy

May. 28, 2017 Rise Set
Actual Time 5:35 AM CEST 9:29 PM CEST
Civil Twilight 4:54 AM CEST 10:11 PM CEST
Nautical Twilight 3:57 AM CEST 11:09 PM CEST
Astronomical Twilight 2:24 AM CEST 12:45 AM CEST
Moon 8:25 AM CEST (5/28) No Moon Set
Length of Visible Light 17h 16m
Length of Day
15h 53m
Waxing Crescent, 10% of the Moon is Illuminated
May 28
Waxing Crescent
Jun 1
First Quarter
Jun 9
Full
Jun 17
Last Quarter
Jun 24
New

Hourly Weather History & Observations

Time (CEST) Temp. Heat Index Dew Point Humidity Pressure Visibility Wind Dir Wind Speed Gust Speed Precip Events Conditions
12:00 AM 74 °F - 58 °F 47% 30.05 in 28 mi Calm Calm - -  
12:20 AM 71.6 °F - 57.2 °F 60% 30.09 in - WSW 3.5 mph - N/A   Clear
12:50 AM 71.6 °F - 57.2 °F 60% 30.09 in 6.2 mi SE 4.6 mph - N/A   Unknown
1:00 AM 72 °F - 58 °F 51% 30.06 in 31 mi SE 4.5 mph - -  
1:20 AM 71.6 °F - 57.2 °F 60% 30.09 in 6.2 mi SE 2.3 mph - N/A   Unknown
1:50 AM 69.8 °F - 57.2 °F 64% 30.09 in - SE 1.2 mph - N/A   Clear
2:20 AM 69.8 °F - 59.0 °F 68% 30.09 in 6.2 mi Calm Calm - N/A   Unknown
2:50 AM 68.0 °F - 59.0 °F 73% 30.09 in 6.2 mi SSE 3.5 mph - N/A   Unknown
3:00 AM 69 °F - 59 °F 61% 30.07 in 28 mi SSE 4.5 mph - -  
3:20 AM 68.0 °F - 59.0 °F 73% 30.09 in 6.2 mi Variable 1.2 mph - N/A   Unknown
3:50 AM 68.0 °F - 59.0 °F 73% 30.09 in 6.2 mi SSW 2.3 mph - N/A   Unknown
4:20 AM 68.0 °F - 59.0 °F 73% 30.09 in 6.2 mi Calm Calm - N/A   Unknown
4:50 AM 68.0 °F - 59.0 °F 73% 30.09 in - Variable 2.3 mph - N/A   Clear
5:20 AM 68.0 °F - 59.0 °F 73% 30.09 in - ESE 1.2 mph - N/A   Clear
5:50 AM 66.2 °F - 57.2 °F 73% 30.09 in - Calm Calm - N/A   Clear
6:00 AM 66 °F - 58 °F 70% 30.07 in 16 mi Calm Calm - -   Scattered Clouds
6:20 AM 66.2 °F - 57.2 °F 73% 30.09 in - Calm Calm - N/A   Clear
6:50 AM 68.0 °F - 59.0 °F 73% 30.09 in - Calm Calm - N/A   Clear
7:00 AM 69 °F - 59 °F 62% 30.07 in 16 mi Calm Calm - -   Scattered Clouds
7:20 AM 69.8 °F - 55.4 °F 60% 30.09 in - Variable 1.2 mph - N/A   Clear
7:50 AM 71.6 °F - 55.4 °F 57% 30.09 in - Variable 2.3 mph - N/A   Clear
8:00 AM 70 °F - 56 °F 52% 30.06 in 19 mi Calm Calm - -   Scattered Clouds
8:20 AM 71.6 °F - 57.2 °F 60% 30.09 in - SE 3.5 mph - N/A   Clear
8:50 AM 71.6 °F - 57.2 °F 60% 30.09 in - Variable 1.2 mph - N/A   Clear
9:00 AM 72 °F - 57 °F 49% 30.07 in 19 mi Calm Calm - -   Scattered Clouds
9:20 AM 73.4 °F - 59.0 °F 61% 30.09 in - Variable 2.3 mph - N/A   Clear
9:50 AM 73.4 °F - 60.8 °F 65% 30.09 in - East 4.6 mph - N/A   Clear
10:00 AM 74 °F - 60 °F 52% 30.06 in 19 mi ESE 4.5 mph - -   Scattered Clouds
10:20 AM 75.2 °F - 60.8 °F 61% 30.09 in - East 4.6 mph - N/A   Clear
10:50 AM 77.0 °F - 60.8 °F 57% 30.09 in - SSE 5.8 mph - N/A   Clear
11:00 AM 77 °F - 60 °F 47% 30.05 in 19 mi SE 6.7 mph - -   Scattered Clouds
11:20 AM 80.6 °F 81.5 °F 60.8 °F 51% 30.09 in - South 6.9 mph - N/A   Clear
11:50 AM 82.4 °F 82.9 °F 60.8 °F 48% 30.09 in - Variable 4.6 mph - N/A   Clear
12:00 PM 81 °F - 60 °F 38% 30.04 in 19 mi 6.7 mph - -   Scattered Clouds
12:20 PM 82.4 °F 82.9 °F 60.8 °F 48% 30.09 in - SSE 6.9 mph - N/A   Clear
12:50 PM 82.4 °F 82.5 °F 59.0 °F 45% 30.09 in - SSE 8.1 mph - N/A   Clear
1:20 PM 84.2 °F 83.8 °F 59.0 °F 42% 30.09 in - South 9.2 mph - N/A   Clear
1:50 PM 84.2 °F 83.8 °F 59.0 °F 42% 30.09 in - SSW 8.1 mph - N/A   Clear
2:00 PM 85 °F - 59 °F 31% 30.02 in 22 mi SSW 8.9 mph - -   Scattered Clouds
2:20 PM 86.0 °F 85.4 °F 59.0 °F 40% 30.06 in - South 9.2 mph - N/A   Clear
2:50 PM 86.0 °F 84.9 °F 57.2 °F 37% 30.06 in - SSW 8.1 mph - N/A   Clear
3:00 PM 86 °F - 58 °F 28% 30.01 in 22 mi SSW 8.9 mph - -   Scattered Clouds
3:20 PM 87.8 °F 86.5 °F 57.2 °F 35% 30.06 in - SSW 9.2 mph - N/A   Clear
3:50 PM 87.8 °F 86.5 °F 57.2 °F 35% 30.06 in - South 10.4 mph 21.9 mph N/A   Clear
4:00 PM 87 °F - 58 °F 27% 29.99 in 22 mi South 11.2 mph - -   Scattered Clouds
4:20 PM 87.8 °F 86.1 °F 55.4 °F 33% 30.06 in - South 9.2 mph - N/A   Clear
4:50 PM 87.8 °F 86.1 °F 55.4 °F 33% 30.06 in - SSW 10.4 mph - N/A   Clear
5:20 PM 87.8 °F 86.1 °F 55.4 °F 33% 30.04 in - SW 9.2 mph - N/A   Clear
5:50 PM 87.8 °F 86.5 °F 57.2 °F 35% 30.04 in - SSW 8.1 mph - N/A   Clear
6:00 PM 87 °F - 58 °F 28% 29.97 in 31 mi SSW 8.9 mph - -   Scattered Clouds
6:20 PM 87.8 °F 87.1 °F 59.0 °F 38% 30.04 in - WSW 6.9 mph - N/A   Clear
6:50 PM 86.0 °F 85.4 °F 59.0 °F 40% 30.04 in 6.2 mi NW 3.5 mph - N/A Thunderstorm Thunderstorm
7:00 PM 87 °F - 59 °F 29% 29.97 in 19 mi NW 4.5 mph - - Thunderstorm Thunderstorm
7:20 PM 84.2 °F 83.8 °F 59.0 °F 42% 30.04 in 6.2 mi SE 6.9 mph - N/A Thunderstorm Thunderstorm
7:50 PM 84.2 °F 83.0 °F 55.4 °F 37% 30.04 in 6.2 mi ESE 8.1 mph - N/A Thunderstorm Partly Cloudy
8:20 PM 82.4 °F 82.0 °F 57.2 °F 42% 30.04 in 6.2 mi East 8.1 mph - N/A   Partly Cloudy
8:50 PM 80.6 °F 81.1 °F 59.0 °F 48% 30.04 in - NE 9.2 mph - N/A   Clear
9:00 PM 81 °F - 61 °F 41% 29.99 in 22 mi NE 11.2 mph - -   Scattered Clouds
9:20 PM 78.8 °F - 60.8 °F 54% 30.04 in - NE 11.5 mph - N/A   Clear
9:50 PM 77.0 °F - 62.6 °F 61% 30.06 in 6.2 mi ENE 9.2 mph - N/A   Unknown
10:00 PM 77 °F - 62 °F 49% 30.00 in 19 mi NE 11.2 mph - -   Clear
10:20 PM 75.2 °F - 62.6 °F 65% 30.06 in - NE 9.2 mph - N/A   Clear
10:50 PM 75.2 °F - 62.6 °F 65% 30.04 in - ENE 6.9 mph - N/A   Clear
11:00 PM 75 °F - 62 °F 54% 30.00 in 28 mi ENE 8.9 mph - -   Overcast
11:20 PM 73.4 °F - 60.8 °F 65% 30.04 in 6.2 mi NE 8.1 mph - N/A   Unknown
11:50 PM 73.4 °F - 60.8 °F 65% 30.04 in 6.2 mi ENE 5.8 mph - N/A   Unknown